User: anonymous
Location: Clinton NY
(43.0598°N, 75.3602°W)
Time: 07:21:10
(UTC-04:00)
Language:

Cosmos-2242 - Orbit

View from above orbital plane
View from above orbital plane
View from above satellite
View from above satellite

Ground track
Ground track

The orbit data is extracted from the following two-line orbital elements,

1 22626U 93024A   14202.90231195  .00000368  00000-0  39259-4 0  1491
2 22626 082.5254 321.4183 0020314 044.6862 315.5987 14.85942806148422
Epoch (UTC): 21 July 2014 21:39:19
Eccentricity: 0.0020314
inclination: 82.5254°
perigee height: 596 km
apogee height: 625 km
right ascension of ascending node: 321.4183°
argument of perigee: 44.6862°
revolutions per day: 14.85942806
mean anomaly at epoch: 315.5987°
orbit number at epoch: 14842

The dashed part of the orbit path shows where the satellite is in the earth's shadow,  

DLR